Header for Extended Forecast Station List Page

Search by: ID | Name | Date | Parm | Value | Avg | % Avg
Sort by: ID | Name | Date | Parm | Value | Avg | % Avg

Enter search or view all records.

Click on id for station plot
#IDNameDateParmValueAvg% Avg
0HWRI1BIG LOST-AT HOWELL RANCH NEAR CHILLY07-06-2020DISCHARGE (KAF)275748
1MACI1BIG LOST-MACKAY RESERVOIR NEAR MACKAY07-06-2020INFLOW (KAF)364483
2HALI1BIG WOOD-AT HAILEY07-06-2020DISCHARGE (KAF)497664
3MAGI1BIG WOOD-MAGIC DAM07-06-2020INFLOW (KAF)183749
4BITM8BITTERROOT-NEAR MISSOULA07-06-2020DISCHARGE (KAF)302299101
5BONM8BLACKFOOT-NEAR BONNER07-06-2020DISCHARGE (KAF)240224107
6BIGI1BOISE-AT GLENWOOD BRIDGE07-06-2020DISCHARGE (KAF)12818271
7LUCI1BOISE-LUCKY PEAK DAM07-06-2020INFLOW (KAF)446MM
8PARI1BOISE-NEAR PARMA07-06-2020DISCHARGE (KAF)17322278
9HOTI1BRUNEAU-NEAR HOT SPRINGS07-06-2020DISCHARGE (KAF)2826105
10BULO3BULLY CREEK-BULLY CREEK DAM07-06-2020INFLOW (KAF)M0M
11BUDW1BUMPING-BUMPING LAKE DAM07-06-2020INFLOW (KAF)182767
12CHDW1CHELAN-LAKE CHELAN DAM07-06-2020INFLOW (KAF)18934355
13ABOM8CLARK FORK-ABOVE MISSOULA07-06-2020DISCHARGE (KAF)583457127
14DLGM8CLARK FORK-AT DEER LODGE07-06-2020DISCHARGE (KAF)8743203
15SRGM8CLARK FORK-AT ST REGIS07-06-2020DISCHARGE (KAF)10771004107
16BELM8CLARK FORK-BELOW MISSOULA07-06-2020DISCHARGE (KAF)884767115
17CABI1CLARK FORK-CABINET GORGE DAM07-06-2020INFLOW (KAF)39753640109
18NOXM8CLARK FORK-NOXON RAPIDS DAM07-06-2020INFLOW (KAF)35993395106
19DRMM8CLARK FORK-NR DRUMMOND07-06-2020DISCHARGE (KAF)204MM
20CLUW1CLE ELUM-CLE ELUM LAKE07-06-2020INFLOW (KAF)519355
21ORFI1CLEARWATER-AT OROFINO07-06-2020DISCHARGE (KAF)60767490
22SPDI1CLEARWATER-AT SPALDING07-06-2020DISCHARGE (KAF)22561268178
23COEI1COEUR D ALENE-COEUR D ALENE LAKE07-06-2020INFLOW (KAF)253247103
24CIBW1COLUMBIA-AT INTL BOUNDARY07-06-2020DISCHARGE (KAF)24312MM
25BONO3COLUMBIA-BONNEVILLE DAM07-06-2020INFLOW (KAF)3607833711107
26CHJW1COLUMBIA-CHIEF JOSEPH DAM07-06-2020INFLOW (KAF)2408722402108
27GCDW1COLUMBIA-GRAND COULEE DAM07-06-2020INFLOW (KAF)2524024626102
28JDAO3COLUMBIA-JOHN DAY DAM07-06-2020INFLOW (KAF)3530933458106
29MCDW1COLUMBIA-MCNARY DAM07-06-2020INFLOW (KAF)3482832945106
30PRWW1COLUMBIA-PRIEST RAPIDS DAM07-06-2020INFLOW (KAF)2584125631101
31RRHW1COLUMBIA-ROCKY REACH DAM07-06-2020INFLOW (KAF)2546523521108
32TDAO3COLUMBIA-THE DALLES DAM07-06-2020INFLOW (KAF)3569732689109
33WANW1COLUMBIA-WANAPUM DAM07-06-2020INFLOW (KAF)2584225161103
34WELW1COLUMBIA-WELLS DAM07-06-2020INFLOW (KAF)2471622970108
35DEDI1DEADWOOD-NEAR LOWMAN07-06-2020INFLOW (KAF)162662
36MODO3DESCHUTES-AT MOODY NR BIGGS07-06-2020DISCHARGE (KAF)1044109495
37ARDW1ENTIAT-NEAR ARDENVOIR07-06-2020DISCHARGE (KAF)315162
38CHEI1FALL RIVER-NEAR CHESTER07-06-2020DISCHARGE (KAF)7877101
39CFMM8FLATHEAD-AT COLUMBIA FALLS07-06-2020DISCHARGE (KAF)15171496101
40KERM8FLATHEAD-KERR DAM07-06-2020INFLOW (KAF)1715178796
41TRYO3GRANDE RONDE-TROY07-06-2020DISCHARGE (KAF)316241131
42REXI1HENRYS FORK-AT REXBURG07-06-2020DISCHARGE (KAF)400362110
43ANTI1HENRYS FORK-AT ST. ANTHONY07-06-2020DISCHARGE (KAF)328314105
44IPDI1HENRYS FORK-ISLAND PARK DAM07-06-2020INFLOW (KAF)13715190
45HODO3HOOD-NEAR TUCKER BRIDGE07-06-2020DISCHARGE (KAF)819288
46SERO3JOHN DAY-AT SERVICE CK07-06-2020DISCHARGE (KAF)6867102
47KADW1KACHESS-KACHESS DAM07-06-2020INFLOW (KAF)141786
48LAUW1KETTLE-AT LAURIER07-06-2020DISCHARGE (KAF)23323798
49PITW1KLICKITAT-NEAR PITT07-06-2020DISCHARGE (KAF)17420385
50BFEI1KOOTENAI-AT BONNERS FERRY07-06-2020STAGE (FT)MMM
51LEOI1KOOTENAI-AT LEONIA07-06-2020DISCHARGE (KAF)2571264597
52LYDM8KOOTENAI-LIBBY DAM07-06-2020INFLOW (KAF)2323243895
53LWRI1LITTLE WOOD-LITTLE WOOD DAM07-06-2020INFLOW (KAF)61736
54BERO3MALHEUR-AGENCY VALLEY DAM07-06-2020INFLOW (KAF)87122
55WRMO3MALHEUR-WARM SPRINGS DAM07-06-2020INFLOW (KAF)43151
56MYKO3MCKAY CREEK-NEAR PILOT ROCK07-06-2020DISCHARGE (KAF)0098
57PATW1METHOW-NEAR PATEROS07-06-2020DISCHARGE (KAF)14519375
58WGCM8MF FLATHEAD-NEAR WEST GLACIER07-06-2020DISCHARGE (KAF)438384114
59CLFW1NACHES-NEAR CLIFFDEL07-06-2020DISCHARGE (KAF)8110081
60NACW1NACHES-NEAR NACHES07-06-2020DISCHARGE (KAF)11615475
61DWRI1NF CLEARWATER-DWORSHAK DAM07-06-2020INFLOW (KAF)33343676
62FCFM8NF FLATHEAD-NEAR COLUMBIA FALLS07-06-2020DISCHARGE (KAF)39044188
63MONO3NF JOHN DAY-AT MONUMENT07-06-2020DISCHARGE (KAF)4643106
64CSDI1NF PAYETTE-CASCADE DAM07-06-2020INFLOW (KAF)7668112
65TONW1OKANOGAN-NEAR TONASKET07-06-2020DISCHARGE (KAF)453393115
66OWYO3OWYHEE-OWYHEE DAM07-06-2020INFLOW (KAF)5751111
67EMMI1PAYETTE-NEAR EMMETT07-06-2020DISCHARGE (KAF)40543693
68ALFW1PEND OREILLE-ALBENI FALLS DAM07-06-2020INFLOW (KAF)40383900104
69HOPI1PEND OREILLE-PEND OREILLE LAKE NR HOPE07-06-2020LAKE ELEVATION (FT)MMM
70PIHI1PORTNEUF-AT POCATELLO07-06-2020DISCHARGE (KAF)232591
71PRTI1PRIEST-NEAR PRIEST RIVER07-06-2020DISCHARGE (KAF)203164124
72RCCM8ROCK CREEK-NEAR CLINTON07-06-2020DISCHARGE (KAF)11085129
73WHBI1SALMON-AT WHITEBIRD07-06-2020DISCHARGE (KAF)15841559102
74ARAI1SF BOISE-ANDERSON RANCH DAM07-06-2020INFLOW (KAF)539258
75HHWM8SF FLATHEAD-HUNGRY HORSE DAM07-06-2020INFLOW (KAF)34935499
76PLDI1SF SNAKE-PALISADES DAM07-06-2020INFLOW (KAF)1446158091
77SIFI1SNAKE-AB EAGLE ROCK NR IDAHO FALLS07-06-2020DISCHARGE (KAF)13221316100
78AFRI1SNAKE-AMERICAN FALLS RESERVOIR07-06-2020INFLOW (KAF)13221209109
79SNAI1SNAKE-AT BLACKFOOT07-06-2020DISCHARGE (KAF)743590126
80MILI1SNAKE-AT MILNER07-06-2020DISCHARGE (KAF)1037112929
81WEII1SNAKE-AT WEISER07-06-2020DISCHARGE (KAF)37492955127
82SWAI1SNAKE-BELOW SWAN FALLS07-06-2020DISCHARGE (KAF)26812004134
83BRNI1SNAKE-BROWNLEE DAM07-06-2020INFLOW (KAF)38883006129
84IHDW1SNAKE-ICE HARBOR DAM07-06-2020INFLOW (KAF)84256283134
85JLKW4SNAKE-JACKSON LAKE AT DAM07-06-2020INFLOW (KAF)18722982
86LGSW1SNAKE-LITTLE GOOSE DAM07-06-2020INFLOW (KAF)83916338132
87LGDW1SNAKE-LOWER GRANITE DAM07-06-2020INFLOW (KAF)84086313133
88LMNW1SNAKE-LOWER MONUMENTAL DAM07-06-2020INFLOW (KAF)84036371132
89ALPW4SNAKE-NEAR ALPINE07-06-2020DISCHARGE (KAF)1047116790
90ANAW1SNAKE-NEAR ANATONE07-06-2020DISCHARGE (KAF)61534972124
91BFTI1SNAKE-NEAR BLACKFOOT07-06-2020DISCHARGE (KAF)738555133
92HEII1SNAKE-NEAR HEISE07-06-2020DISCHARGE (KAF)1879195996
93JKSW4SNAKE-NEAR JACKSON07-06-2020DISCHARGE (KAF)87296291
94SHYI1SNAKE-NEAR SHELLEY07-06-2020DISCHARGE (KAF)11851022116
95LLKW1SPOKANE-AT LONGLAKE07-06-2020INFLOW (KAF)59461597
96SPOW1SPOKANE-AT SPOKANE07-06-2020DISCHARGE (KAF)413MM
97SJMI1ST JOE-AT ST MARIES07-06-2020STAGE (FT)MMM
98SATI1ST MARIES-NEAR SANTA07-06-2020DISCHARGE (KAF)171989
99STRM8ST. REGIS-NEAR ST. REGIS07-06-2020DISCHARGE (KAF)373799
100TNAW1TEANAWAY-BELOW FORKS07-06-2020DISCHARGE (KAF)7979
101TEAI1TETON-NEAR ST. ANTHONY07-06-2020DISCHARGE (KAF)197188105
102RILW1TIETON-RIMROCK LAKE NEAR RIMROCK07-06-2020INFLOW (KAF)747994
103PDTO3UMATILLA-AT PENDLETON07-06-2020DISCHARGE (KAF)121297
104GIBO3UMATILLA-NEAR GIBBON07-06-2020DISCHARGE (KAF)121299
105UMAO3UMATILLA-NEAR UMATILLA07-06-2020DISCHARGE (KAF)347463
106TCHW1WALLA WALLA-NEAR TOUCHET07-06-2020DISCHARGE (KAF)108116
107WSRI1WEISER-NEAR WEISER07-06-2020DISCHARGE (KAF)545696
108PESW1WENATCHEE-AT PESHASTIN07-06-2020DISCHARGE (KAF)26540166
109UNDW1WHITE SALMON-NEAR UNDERWOOD07-06-2020DISCHARGE (KAF)14316587
110RIDI1WILLOW CREEK-RIRIE DAM07-06-2020INFLOW (KAF)85149
111EASW1YAKIMA-AT EASTON07-06-2020DISCHARGE (KAF)667588
112KIOW1YAKIMA-AT KIONA07-06-2020DISCHARGE (KAF)38944188
113UMTW1YAKIMA-AT UMTANUM07-06-2020DISCHARGE (KAF)59161097
114KEDW1YAKIMA-KEECHELUS LAKE07-06-2020INFLOW (KAF)242594
115PARW1YAKIMA-NEAR PARKER07-06-2020DISCHARGE (KAF)9413072